Temperature
25 23 24 25 25 25 25 25 24 24 25 25 24 23 22 22 22 22 22 22 22 22 22 22 22 22 21 21 20 20 19 19 19 19 18 18 18 18 18 18 17 17 17 17
23 24 25 25 25 25 25 25 25 25 25 25 24 23 23 22 22 22 22 22 23 23 22 22 22 22 21 21 20 20 20 19 19 19 19 18 18 18 18 17 17 17 17 17
25 25 25 26 26 26 26 25 26 25 25 24 24 24 23 22 23 23 23 23 23 23 23 22 22 22 21 21 21 20 20 20 19 19 18 18 18 18 17 17 17 17 17 17
24 25 26 26 26 26 26 26 26 25 24 22 24 23 23 21 21 22 22 23 23 23 23 22 22 22 22 21 21 20 20 20 19 19 18 18 18 18 18 17 17 17 17 17
24 25 26 27 27 26 26 25 24 24 23 22 22 22 22 21 22 21 22 22 23 23 23 23 22 22 21 21 21 20 20 19 19 19 18 18 18 18 17 17 17 17 17 17
24 25 26 27 27 26 25 23 22 19 20 22 23 22 22 20 21 21 22 22 23 23 23 23 22 22 21 21 21 20 20 19 19 18 18 18 18 18 17 17 17 17 17 17
25 26 26 27 27 25 24 22 21 22 20 21 21 22 21 22 21 22 22 22 23 23 23 23 22 22 22 21 21 20 20 20 19 18 18 18 18 18 17 17 17 17 17 17
24 23 25 26 26 25 23 22 21 22 22 21 21 22 22 22 23 23 23 24 23 23 23 23 23 22 22 22 21 20 20 20 19 19 18 18 18 18 17 17 17 17 17 17
22 23 25 26 26 24 23 21 21 19 20 21 21 21 22 23 22 22 23 23 23 23 23 23 23 23 22 22 21 21 20 20 19 19 18 18 18 18 17 17 17 17 17 17
22 24 25 25 25 23 22 19 18 19 20 22 22 22 22 23 23 22 21 22 23 23 23 23 23 23 22 22 21 21 20 20 19 19 19 18 18 18 17 17 17 17 17 17
23 23 24 24 25 24 22 20 17 16 18 20 22 22 22 22 22 21 21 23 23 24 24 23 23 23 22 22 21 21 20 20 20 19 19 18 18 18 17 17 17 17 17 17
20 19 21 23 23 24 24 21 19 21 20 18 20 21 22 21 21 22 22 23 23 24 24 23 23 22 22 22 21 21 20 20 20 19 19 18 18 18 17 17 17 17 17 17
20 19 21 22 22 23 23 21 19 17 16 16 20 23 22 21 21 22 23 23 23 23 23 23 23 22 22 22 21 21 21 20 20 19 19 18 18 18 18 17 17 17 17 16
20 18 20 21 21 22 23 22 19 19 18 18 19 22 22 21 21 21 22 23 23 23 23 23 23 22 22 22 21 21 21 20 20 19 19 18 18 18 17 17 17 17 16 16
20 20 20 21 22 23 24 23 21 21 20 20 21 20 22 21 21 21 22 22 22 22 23 23 23 23 22 22 21 21 20 20 19 19 19 18 18 18 17 17 17 16 16 16
17 19 20 22 22 23 24 23 22 22 21 21 22 22 21 21 21 21 21 22 22 22 23 23 23 23 22 22 22 21 20 20 19 19 18 18 18 17 17 17 16 16 16 16
16 18 19 20 22 23 23 23 22 22 21 21 22 22 20 19 19 20 21 21 22 22 23 23 23 23 22 22 21 21 20 20 19 19 18 18 18 17 17 16 16 16 16 15
16 16 15 18 21 22 21 21 22 22 21 20 21 20 19 20 21 21 22 22 22 22 23 23 23 22 22 21 21 20 20 19 19 18 18 18 17 17 16 16 16 15 15 15
15 15 15 16 19 21 22 22 21 21 21 20 19 19 19 20 20 20 21 22 22 23 23 23 23 22 22 21 21 20 19 19 18 18 18 17 17 16 16 16 15 15 15 14
14 14 15 16 19 20 21 21 21 21 21 20 19 18 19 20 19 19 21 21 22 22 22 22 22 21 21 20 20 19 19 18 18 18 17 17 16 16 16 15 15 15 14 14
16 15 15 16 18 18 19 20 21 21 20 20 19 19 19 19 19 21 21 21 21 21 21 21 21 21 20 20 19 19 18 18 18 17 17 16 16 16 15 15 15 14 14 13
15 15 15 15 18 19 19 19 19 19 20 20 20 20 20 20 20 20 20 21 21 21 20 20 20 20 19 19 19 19 18 18 17 17 16 16 15 15 15 14 14 14 13 13
14 14 14 15 16 17 17 18 19 20 19 19 20 20 20 20 19 19 20 20 20 20 20 19 19 19 19 18 18 18 18 17 17 16 16 15 15 14 14 14 13 13 13 12
14 13 13 14 15 16 17 18 19 19 20 20 20 20 20 20 19 19 19 19 19 19 19 19 19 18 18 18 17 17 17 16 16 16 15 15 15 14 14 13 13 12 12 12
14 13 13 14 15 16 17 18 19 19 20 20 19 19 19 19 19 19 18 18 18 18 18 18 18 18 17 17 16 16 16 16 15 15 15 14 14 14 13 13 12 12 12 11
13 13 14 14 15 15 16 17 18 19 19 19 19 19 19 19 19 18 18 18 18 17 17 17 17 17 17 16 16 16 15 15 15 15 14 14 13 13 12 12 12 11 11 11
Wind_Speed
5 6 2 4 5 4 4 2 2 4 3 5 5 4 5 9 9 9 8 8 8 8 5 6 6 7 6 6 7 7 7 5 5 3 3 2 2 2 1 2 4 5 5 5
6 1 4 4 4 4 3 1 1 2 2 3 2 1 2 7 10 10 10 10 9 7 5 6 6 6 7 7 6 7 6 6 6 4 3 2 2 2 2 2 2 5 5 5
4 4 2 3 2 3 1 4 3 2 2 5 4 4 1 3 4 4 6 7 8 9 8 7 7 7 6 7 7 7 6 6 5 4 3 2 1 1 0 1 1 3 5 5
3 4 2 2 2 5 2 3 4 4 5 2 3 1 5 3 4 6 7 7 8 8 7 7 7 7 7 7 6 5 5 5 4 4 4 4 3 3 3 2 2 3 4 4
4 2 1 2 4 6 4 4 5 5 5 4 4 2 8 2 4 8 8 9 9 9 9 9 8 7 6 6 6 5 5 4 4 4 4 4 2 2 1 1 2 2 2 3
4 3 4 4 1 4 6 8 8 7 6 2 1 1 6 4 7 5 7 9 9 9 9 7 7 7 6 5 5 5 5 4 3 3 3 4 4 3 2 2 2 2 2 2
2 3 3 3 4 4 6 7 5 6 5 4 3 2 8 7 7 7 8 9 9 9 9 9 9 9 8 7 6 5 5 3 3 3 3 3 3 3 3 2 2 2 2 2
4 4 4 3 6 6 5 9 8 5 5 5 3 4 7 6 5 4 5 7 8 8 9 9 9 9 9 8 8 6 5 4 3 3 2 2 2 2 2 2 1 2 2 2
7 6 5 3 3 10 8 4 7 8 3 1 5 7 7 3 3 1 4 6 8 9 9 9 9 9 9 9 8 8 7 4 3 3 2 1 1 2 1 1 1 1 1 1
9 3 4 3 6 7 6 10 7 7 6 1 5 5 5 5 4 2 4 7 7 7 7 8 9 9 8 7 7 7 6 5 4 3 2 2 1 1 1 1 1 0 1 1
6 4 3 3 4 7 6 6 7 6 6 7 2 7 7 8 7 8 8 8 8 9 9 9 8 8 8 7 7 7 6 4 4 3 3 2 2 2 2 2 1 1 1 1
6 6 2 5 3 2 5 8 8 6 4 5 5 7 6 7 7 7 7 6 6 7 8 9 9 8 7 7 6 6 6 5 4 4 4 3 3 3 2 2 1 2 2 2
8 7 3 5 5 2 4 5 5 8 7 6 5 7 4 2 2 4 4 5 6 7 7 7 8 8 8 7 7 6 6 6 5 5 5 4 3 3 2 2 2 3 3 3
8 6 7 9 8 5 4 5 6 7 6 6 8 8 7 5 4 3 4 5 6 6 7 7 7 7 7 7 7 7 6 6 6 6 5 4 3 3 3 3 3 3 3 4
7 6 6 5 4 4 4 6 8 7 9 9 9 9 10 9 8 6 5 6 7 7 7 8 8 7 7 7 6 6 6 6 6 6 5 4 3 3 4 4 4 4 4 4
4 7 5 2 2 4 3 4 7 5 5 5 4 8 7 4 3 4 6 8 8 8 8 8 7 8 7 7 7 6 6 6 6 6 5 4 4 4 4 4 4 4 5 4
3 7 6 3 1 3 3 4 6 4 4 6 7 8 2 3 5 6 6 7 8 8 7 7 7 7 7 6 6 6 6 7 7 6 5 5 5 5 4 4 5 5 4 5
7 6 5 4 4 5 8 2 4 5 2 3 4 4 5 4 3 3 3 6 6 6 6 7 6 6 6 6 6 5 6 7 7 6 5 5 6 6 5 5 6 5 5 5
5 8 6 5 5 3 4 1 3 4 2 1 3 2 2 4 5 2 1 3 4 5 5 5 6 6 6 7 7 7 6 6 6 6 5 5 6 7 6 6 5 5 5 6
6 6 7 5 6 7 7 2 1 4 2 2 3 4 4 5 3 3 1 3 4 4 4 5 6 6 7 6 8 9 7 6 5 4 5 5 6 7 7 6 6 5 6 6
4 5 5 5 4 6 6 4 2 4 6 3 4 4 5 4 4 2 3 5 6 6 6 7 7 7 6 7 8 9 7 5 5 6 6 6 6 7 7 7 5 6 7 7
4 5 4 5 4 6 3 1 4 5 2 2 3 3 4 3 4 4 5 6 7 8 8 7 7 6 6 7 8 8 6 5 6 7 7 6 6 6 7 7 6 6 7 7
3 4 5 6 6 4 2 3 2 3 3 1 2 2 5 6 5 5 5 5 6 7 7 7 8 8 6 5 7 8 6 7 7 7 7 7 6 6 6 7 7 5 5 5
1 1 2 1 3 3 2 1 1 2 2 2 3 5 6 7 7 7 6 5 5 5 6 6 8 7 5 4 5 6 7 8 8 8 7 7 7 7 6 5 5 5 4 4
2 1 2 1 3 2 3 2 1 3 5 7 6 5 6 8 7 7 6 5 5 4 4 5 6 6 5 5 5 6 7 8 9 8 7 6 6 7 6 5 4 4 3 3
2 4 4 5 5 3 3 2 1 4 5 6 7 5 4 5 6 6 6 5 5 4 4 5 5 5 5 5 5 5 6 8 9 8 7 6 5 6 6 6 6 8 6 7
Wind_Direction
31 69 131 192 173 166 159 173 242 254 208 152 188 211 190 178 182 186 189 192 202 208 197 175 172 168 163 163 166 173 176 171 158 154 166 173 200 213 203 208 213 214 215 206
42 332 225 181 162 142 146 141 286 331 50 131 149 260 212 194 202 197 194 198 202 197 178 173 166 165 170 174 175 175 176 178 180 176 166 166 164 185 202 223 221 223 219 213
166 229 207 154 122 119 178 183 199 168 65 52 86 353 268 239 224 209 196 196 196 194 187 179 175 174 170 178 184 186 183 184 185 171 141 116 93 72 162 234 243 239 226 218
221 251 202 146 174 147 235 234 165 129 100 14 71 264 278 242 235 224 209 193 196 190 180 179 182 182 183 187 179 172 169 174 178 166 165 173 182 195 216 221 236 254 234 224
229 219 145 194 213 169 182 69 85 84 102 59 32 112 288 323 247 240 221 202 197 189 180 182 183 184 176 164 159 156 151 166 170 169 175 177 193 201 212 218 236 256 264 248
232 244 214 206 153 134 119 72 55 47 66 46 317 146 280 250 233 242 215 201 195 185 176 174 164 151 149 143 143 146 150 166 170 170 173 180 192 193 208 246 252 263 270 263
303 291 253 172 105 55 88 88 41 16 18 260 293 211 254 260 240 222 205 194 186 178 167 166 161 159 157 154 155 154 153 172 169 168 181 190 195 188 208 239 241 251 273 275
168 268 250 192 171 156 145 134 151 175 204 272 333 252 263 276 279 228 189 170 168 171 167 170 169 165 165 164 161 158 163 184 174 169 190 192 188 195 218 230 232 238 251 262
170 236 285 252 167 131 126 128 148 126 138 30 299 297 307 327 360 106 152 161 175 177 173 170 165 165 167 168 167 168 169 171 168 170 173 175 175 175 201 210 203 245 265 267
153 199 296 318 84 36 129 138 103 111 133 215 304 295 261 269 259 225 190 192 189 174 167 162 164 166 165 167 163 161 162 169 168 159 168 173 155 144 138 115 106 50 12 39
137 146 317 35 156 162 110 91 98 101 137 146 219 272 233 227 219 214 215 204 185 176 170 166 166 163 159 159 158 157 158 158 151 149 141 121 113 107 98 89 82 83 64 76
139 124 216 267 285 191 150 155 144 143 178 159 165 262 272 238 227 212 212 200 181 175 166 160 156 152 153 159 160 159 161 158 154 147 134 125 112 104 98 85 78 82 83 80
139 121 96 350 347 29 122 135 130 120 116 147 163 258 306 309 240 205 192 179 167 163 158 153 151 158 165 164 159 161 159 156 149 139 133 128 123 118 109 90 85 79 76 72
124 118 158 185 207 188 160 149 143 125 141 181 213 243 288 279 249 221 182 163 155 160 160 159 161 166 166 163 162 162 159 153 146 140 139 139 140 136 122 101 87 81 78 71
120 147 178 205 201 170 174 170 166 168 175 177 218 222 244 239 224 211 179 160 156 164 167 171 171 167 163 160 161 159 157 153 148 145 147 151 138 122 109 98 90 83 78 73
94 147 153 192 198 182 177 184 175 182 171 198 213 246 252 247 182 172 170 172 180 184 180 177 172 166 166 168 165 159 157 154 146 146 149 138 125 114 107 101 90 84 80 78
109 124 130 200 241 111 227 208 177 173 177 172 202 235 223 186 191 192 184 180 190 190 181 177 178 172 168 168 166 166 164 152 147 147 143 135 128 120 114 108 94 84 78 79
132 118 125 135 116 193 239 257 167 151 178 212 226 236 203 200 184 168 167 181 191 186 181 178 173 164 156 152 150 146 145 145 143 141 137 132 128 120 107 100 94 85 78 79
133 130 116 125 158 235 285 209 152 149 245 242 205 187 133 117 87 34 113 162 180 179 173 174 168 158 148 146 143 135 132 133 135 139 138 135 129 123 115 107 102 99 94 83
63 91 113 122 141 204 232 251 221 120 276 261 178 166 146 119 128 250 233 123 114 114 125 134 134 127 131 134 131 128 128 129 132 133 131 126 120 121 120 116 107 99 99 94
61 61 107 136 168 242 252 283 107 158 233 232 185 178 159 168 193 192 124 117 116 110 108 114 122 124 128 129 130 132 132 140 135 124 119 116 118 119 119 112 107 108 103 95
151 135 150 135 153 235 289 92 159 209 220 167 166 165 151 134 105 99 104 114 115 110 106 114 121 116 115 126 133 134 142 139 127 125 123 118 114 117 119 115 110 110 109 101
168 182 181 183 203 243 272 227 238 172 160 171 152 139 136 124 105 93 91 101 108 112 113 115 119 115 111 124 138 144 144 132 128 123 121 116 109 101 109 118 121 114 110 111
326 107 126 270 288 301 318 321 9 128 139 115 118 119 116 114 113 105 95 89 93 99 109 113 116 119 121 121 119 127 131 132 130 129 127 123 119 110 103 105 114 118 119 120
244 120 112 254 281 339 354 356 50 86 94 96 92 95 113 119 118 118 116 109 101 98 100 113 123 129 132 124 117 126 134 135 134 134 132 128 125 125 117 103 90 110 109 136
216 176 165 214 228 200 240 281 106 99 96 107 107 96 91 113 122 117 117 116 113 114 117 117 119 125 128 127 125 128 137 140 139 140 140 139 135 130 127 119 92 61 77 91
Height
1509 1516 1523 1521 1520 1521 1525 1531 1534 1529 1521 1524 1528 1529 1528 1529 1531 1533 1535 1536 1538 1540 1543 1546 1548 1550 1552 1553 1555 1556 1558 1559 1560 1561 1562 1563 1564 1565 1566 1567 1567 1568 1568 1569
1517 1521 1515 1515 1517 1520 1524 1530 1531 1526 1521 1524 1529 1531 1528 1528 1528 1530 1532 1534 1536 1539 1542 1544 1546 1548 1550 1552 1554 1555 1557 1558 1559 1560 1561 1562 1563 1564 1565 1565 1566 1566 1567 1567
1518 1517 1512 1514 1517 1521 1523 1527 1527 1528 1525 1527 1531 1536 1532 1528 1529 1530 1532 1533 1535 1538 1540 1543 1545 1547 1549 1551 1552 1554 1556 1557 1558 1559 1559 1560 1561 1561 1562 1563 1564 1564 1565 1565
1515 1512 1512 1514 1517 1519 1526 1518 1520 1524 1534 1543 1538 1553 1535 1531 1529 1528 1529 1531 1533 1536 1538 1541 1543 1545 1547 1550 1552 1553 1555 1556 1557 1558 1559 1559 1559 1560 1561 1561 1562 1563 1563 1563
1515 1511 1511 1514 1513 1514 1518 1517 1522 1528 1536 1546 1544 1552 1544 1532 1531 1527 1525 1527 1529 1532 1535 1538 1541 1544 1547 1550 1551 1553 1554 1555 1556 1557 1557 1558 1558 1558 1559 1560 1560 1560 1561 1561
1511 1508 1508 1509 1508 1511 1515 1523 1531 1539 1547 1559 1549 1553 1549 1536 1528 1523 1522 1524 1526 1530 1533 1537 1540 1543 1546 1549 1550 1551 1553 1554 1555 1556 1556 1556 1557 1557 1558 1558 1558 1559 1559 1559
1514 1509 1506 1506 1511 1514 1519 1537 1560 1562 1570 1566 1551 1552 1546 1525 1519 1518 1518 1520 1523 1527 1530 1534 1538 1541 1544 1547 1549 1550 1552 1553 1554 1554 1555 1555 1556 1556 1556 1557 1557 1557 1557 1557
1524 1525 1508 1505 1509 1517 1522 1532 1558 1570 1573 1567 1553 1552 1535 1519 1516 1515 1516 1519 1522 1525 1528 1532 1536 1539 1542 1545 1547 1549 1551 1552 1553 1553 1554 1554 1554 1555 1555 1555 1555 1556 1555 1555
1525 1523 1506 1503 1503 1510 1524 1532 1535 1556 1562 1566 1559 1546 1528 1517 1516 1515 1516 1519 1521 1524 1527 1530 1534 1538 1541 1543 1545 1548 1549 1551 1552 1552 1553 1553 1554 1554 1554 1554 1554 1554 1554 1554
1511 1519 1508 1504 1505 1511 1515 1527 1543 1556 1571 1571 1560 1551 1543 1524 1519 1517 1517 1518 1520 1523 1526 1529 1533 1536 1540 1543 1545 1547 1549 1551 1552 1552 1553 1553 1553 1553 1553 1553 1553 1553 1553 1553
1505 1517 1515 1509 1510 1516 1521 1530 1542 1555 1557 1571 1569 1555 1524 1519 1516 1516 1516 1516 1519 1522 1525 1528 1532 1536 1539 1542 1544 1546 1548 1550 1551 1551 1552 1552 1552 1553 1553 1553 1553 1552 1552 1552
1505 1518 1526 1517 1508 1507 1510 1521 1533 1547 1556 1562 1563 1551 1514 1513 1512 1513 1514 1516 1519 1522 1524 1528 1531 1535 1538 1541 1543 1545 1547 1548 1550 1551 1551 1552 1552 1552 1552 1552 1552 1552 1552 1552
1503 1518 1532 1529 1524 1514 1514 1519 1525 1536 1552 1563 1561 1543 1513 1510 1510 1512 1514 1516 1519 1521 1524 1527 1531 1534 1537 1540 1542 1544 1546 1547 1549 1550 1551 1551 1552 1552 1552 1552 1552 1552 1552 1551
1495 1514 1525 1533 1527 1516 1515 1519 1524 1531 1548 1554 1548 1533 1518 1513 1511 1511 1513 1515 1518 1521 1524 1527 1530 1533 1536 1538 1541 1543 1545 1546 1548 1549 1550 1550 1551 1551 1552 1552 1552 1552 1552 1551
1494 1510 1512 1512 1509 1509 1510 1514 1519 1522 1529 1537 1531 1529 1516 1510 1509 1509 1511 1514 1517 1520 1523 1525 1528 1531 1534 1537 1539 1542 1544 1546 1547 1548 1549 1550 1550 1551 1552 1552 1552 1552 1551 1551
1497 1507 1510 1511 1508 1508 1509 1510 1514 1515 1519 1521 1520 1520 1508 1507 1508 1509 1511 1513 1516 1518 1521 1524 1527 1530 1533 1536 1538 1540 1542 1544 1546 1548 1549 1549 1550 1550 1551 1551 1551 1551 1551 1551
1502 1508 1517 1521 1511 1510 1519 1510 1510 1511 1512 1514 1518 1512 1506 1506 1506 1507 1509 1511 1513 1516 1519 1523 1526 1529 1532 1535 1537 1540 1541 1543 1545 1547 1548 1548 1549 1550 1550 1551 1551 1551 1551 1551
1500 1509 1519 1524 1519 1531 1517 1503 1503 1506 1508 1507 1506 1505 1504 1504 1505 1507 1508 1510 1512 1515 1518 1522 1525 1528 1531 1534 1536 1538 1540 1542 1544 1545 1547 1548 1548 1549 1550 1550 1550 1551 1551 1551
1494 1505 1520 1528 1529 1522 1510 1502 1503 1507 1508 1504 1504 1503 1503 1504 1505 1507 1508 1510 1512 1514 1517 1521 1524 1527 1530 1532 1535 1537 1539 1541 1543 1544 1545 1547 1547 1548 1549 1549 1550 1550 1551 1551
1497 1501 1515 1525 1527 1530 1512 1500 1499 1504 1511 1503 1502 1502 1503 1503 1510 1508 1507 1508 1511 1514 1517 1520 1523 1526 1529 1532 1534 1536 1539 1540 1541 1543 1544 1546 1546 1547 1548 1549 1550 1550 1551 1551
1506 1510 1516 1521 1522 1517 1503 1499 1499 1514 1511 1501 1500 1501 1502 1503 1505 1506 1507 1509 1511 1514 1516 1520 1523 1525 1528 1531 1533 1535 1537 1539 1541 1542 1543 1545 1546 1547 1548 1549 1550 1550 1550 1551
1508 1513 1518 1521 1521 1518 1499 1498 1502 1504 1499 1499 1499 1500 1501 1502 1504 1505 1507 1509 1511 1513 1516 1519 1522 1525 1528 1530 1533 1534 1536 1538 1540 1541 1543 1545 1545 1546 1548 1549 1549 1550 1550 1551
1506 1507 1509 1510 1510 1501 1497 1497 1497 1497 1498 1499 1499 1500 1501 1502 1504 1506 1508 1510 1512 1515 1517 1520 1522 1525 1527 1529 1532 1533 1535 1537 1539 1541 1542 1543 1545 1546 1547 1548 1549 1550 1550 1551
1503 1503 1505 1505 1501 1498 1497 1497 1497 1497 1498 1499 1500 1501 1502 1503 1505 1507 1510 1513 1514 1516 1518 1520 1523 1524 1527 1529 1530 1532 1534 1536 1538 1540 1541 1543 1544 1545 1547 1548 1549 1549 1549 1550
1502 1502 1504 1504 1501 1498 1498 1497 1497 1498 1499 1500 1501 1503 1504 1505 1506 1508 1511 1513 1515 1517 1519 1521 1523 1524 1526 1528 1530 1532 1533 1535 1537 1539 1540 1542 1543 1544 1546 1547 1548 1548 1549 1550
1500 1501 1503 1503 1499 1499 1499 1498 1498 1499 1500 1501 1502 1504 1505 1506 1507 1509 1511 1513 1515 1518 1519 1521 1522 1524 1526 1528 1529 1531 1533 1534 1536 1537 1539 1540 1542 1543 1544 1546 1547 1548 1549 1550